Location: Strawberry
(45.6646°N, 111.9596°W)
Time: 16:22:18
(UTC+00:00)

S-56A Canister/Altair - Visible Passes

Search period start: 26 September 2022 00:00
Search period end: 06 October 2022 00:00
Orbit: 637 x 2496 km, 38.9° (Epoch: 25 September)

Date Brightness Start Highest point End Pass type
(mag) Time Alt. Az. Time Alt. Az. Time Alt. Az.
26 Sep 10.5 09:08:58 13° ESE 09:08:58 13° ESE 09:09:58 10° ESE visible
26 Sep 9.1 11:06:24 29° SSW 11:08:53 36° SSE 11:14:20 10° E visible
27 Sep 9.2 10:35:27 35° S 10:36:11 36° SSE 10:41:59 10° E visible
27 Sep 8.5 12:32:53 10° WSW 12:39:53 46° S 12:44:54 10° ESE visible
28 Sep 9.4 10:04:30 34° SE 10:04:30 34° SE 10:09:36 10° E visible
28 Sep 8.6 12:01:55 19° WSW 12:07:17 48° S 12:12:38 10° ESE visible
29 Sep 9.8 09:33:32 27° ESE 09:33:32 27° ESE 09:37:10 10° E visible
29 Sep 8.7 11:30:57 29° SW 11:34:38 49° S 11:40:20 10° ESE visible
30 Sep 10.3 09:02:33 19° ESE 09:02:33 19° ESE 09:04:42 10° E visible
30 Sep 8.8 10:59:58 42° SSW 11:01:56 49° S 11:08:02 10° ESE visible
30 Sep 8.6 12:58:37 10° W 13:05:32 41° SSW 13:10:29 10° SE visible
01 Oct 10.7 08:31:34 12° E 08:31:34 12° E 08:32:10 10° E visible
01 Oct 8.9 10:28:59 50° S 10:29:09 50° S 10:35:42 10° E visible
01 Oct 8.6 12:26:25 14° W 12:32:58 45° SSW 12:38:17 10° ESE visible
02 Oct 9.2 09:58:00 44° SE 09:58:00 44° SE 10:03:20 10° E visible
02 Oct 8.6 11:55:25 23° WSW 12:00:20 49° S 12:06:03 10° ESE visible
03 Oct 9.8 09:27:02 33° ESE 09:27:02 33° ESE 09:30:55 10° E visible
03 Oct 8.7 11:24:27 36° WSW 11:27:39 52° S 11:33:47 10° ESE visible
04 Oct 10.3 08:56:04 22° ESE 08:56:04 22° ESE 08:58:28 10° E visible
04 Oct 8.8 10:53:30 50° SW 10:54:53 55° S 11:01:29 10° ESE visible
04 Oct 9.0 12:51:21 10° W 12:58:19 32° SSW 13:03:22 10° SSE visible
05 Oct 10.8 08:25:08 14° E 08:25:08 14° E 08:25:57 10° E visible
05 Oct 8.9 10:22:34 56° S 10:22:34 56° S 10:29:09 10° ESE visible
05 Oct 9.0 12:20:00 17° W 12:25:46 37° SSW 12:31:17 10° SE visible
